User: anonymous   Login
Location: Unspecified
(0.0000°N, 0.0000°E)
Time: 22:21:27
(UTC+00:00)
Language:

SAR-Lupe-2 - Orbit

View from above orbital plane
View from above orbital plane
View from above satellite
View from above satellite

Ground track
Ground track

The orbit is defined by the following mean orbital elements,

1 31797U          26140.61583258 +.00000000 +00000-0 +43755-3 0 00008
2 31797  98.1018 241.7348 0012259 200.4784 159.5973 15.46453515    07
Epoch (UTC): 20 May 2026 14:46:47
Eccentricity: 0.0012259
inclination: 98.1018°
perigee height: 419 km
apogee height: 435 km
right ascension of ascending node: 241.7348°
argument of perigee: 200.4784°
revolutions per day: 15.46453515
mean anomaly at epoch: 159.5973°

The dashed part of the orbit path shows where the satellite is in the earth's shadow,  

DLR